Temperature
10 9 8 8 9 10 10 10 10 10 10 10 9 9 9 9 8 8 7 7 7 6 6 6 6 6 6 6 6 6 6 6 7 7 7 7 7 7 7 7 7 7 7 7
9 8 9 9 10 10 10 9 9 9 10 9 8 8 9 8 8 7 7 7 6 6 6 5 5 5 5 5 5 6 6 6 6 6 6 6 7 7 7 7 7 7 7 7
8 8 9 9 9 9 9 8 8 8 8 8 8 7 8 8 8 7 7 6 6 5 5 4 4 4 4 5 5 5 5 5 6 6 6 6 6 6 6 6 6 6 6 6
8 8 8 8 8 8 8 8 8 8 7 6 8 6 8 8 7 6 6 5 5 5 4 4 4 4 4 4 4 5 5 5 5 5 5 5 5 5 5 6 6 6 6 6
7 7 7 7 7 7 7 8 7 7 7 6 7 6 6 7 6 5 5 5 4 4 3 3 3 3 3 3 4 4 4 4 4 4 4 4 5 5 5 5 5 5 5 5
7 7 7 7 7 7 7 7 7 7 6 5 6 6 6 6 6 5 5 4 4 3 3 3 3 3 3 3 3 3 4 4 4 4 4 4 4 4 5 5 5 5 5 5
7 6 6 7 6 6 6 5 5 5 5 6 6 6 5 5 5 5 4 4 3 3 3 2 2 2 2 2 2 3 3 3 3 3 4 3 3 4 4 4 4 4 4 4
6 5 6 6 5 5 5 6 5 5 5 6 5 5 5 5 4 4 4 4 3 2 2 2 1 1 1 2 2 2 2 3 3 3 3 3 3 3 3 4 4 4 4 4
5 5 5 6 6 5 5 5 6 5 5 5 5 5 5 4 3 3 3 3 2 2 1 1 1 1 1 1 1 2 2 2 2 2 3 3 3 3 3 3 3 3 3 4
5 3 4 5 5 5 5 5 4 4 4 4 5 5 5 3 2 2 1 1 2 1 1 0 0 0 0 0 1 1 1 1 2 2 2 2 3 3 3 3 3 3 3 3
4 3 3 4 3 3 4 4 4 4 4 4 4 4 4 3 2 1 1 1 1 1 0 -0 -1 -0 -0 -0 0 0 0 1 1 1 2 2 2 2 2 2 2 2 2 2
4 3 2 3 4 4 4 4 3 3 3 4 3 3 3 2 2 1 1 1 0 0 -0 -1 -1 -1 -1 -1 -1 -0 -0 0 0 1 1 1 1 2 2 2 2 1 1 1
2 2 1 3 2 2 2 3 3 3 2 2 3 3 1 1 1 1 1 0 -0 -1 -1 -1 -2 -2 -2 -2 -2 -1 -1 -0 0 0 0 1 1 1 1 1 1 1 1 1
3 1 1 2 2 2 1 2 2 2 1 2 3 2 1 0 -0 -0 -0 -0 -1 -1 -2 -2 -2 -3 -2 -2 -2 -2 -1 -1 -1 -0 -0 -0 0 0 0 0 0 0 0 0
1 0 1 1 2 1 1 1 1 1 1 1 2 1 1 0 -1 -1 -1 -1 -2 -2 -3 -3 -3 -3 -3 -3 -2 -2 -2 -1 -1 -1 -1 -1 -1 -1 -1 -0 -0 -1 -1 -1
-0 -0 -0 -0 1 1 1 0 0 1 1 0 1 0 0 -0 -0 -1 -1 -2 -3 -3 -4 -4 -4 -4 -3 -3 -3 -2 -2 -2 -2 -1 -1 -1 -1 -1 -1 -1 -1 -1 -1 -1
-1 -1 -1 -0 0 0 -0 -1 -1 -1 -1 -1 -0 -0 -1 -2 -2 -2 -2 -3 -3 -4 -4 -4 -4 -4 -3 -3 -3 -3 -3 -3 -2 -2 -2 -2 -2 -2 -2 -2 -2 -2 -2 -2
-2 -1 -1 -1 -1 -1 -0 -1 -1 -1 -2 -2 -2 -2 -2 -2 -2 -2 -3 -3 -4 -4 -4 -4 -4 -4 -3 -3 -3 -3 -3 -3 -3 -3 -3 -3 -2 -2 -2 -2 -2 -2 -3 -3
-2 -2 -1 -1 -1 -1 -0 -1 -2 -2 -3 -3 -3 -2 -2 -3 -3 -3 -3 -4 -4 -4 -4 -4 -4 -4 -4 -4 -4 -4 -4 -4 -4 -3 -3 -3 -3 -3 -3 -3 -3 -3 -3 -3
-2 -2 -2 -2 -1 -1 -1 -2 -2 -3 -3 -3 -3 -3 -4 -4 -4 -4 -4 -4 -4 -5 -5 -5 -4 -4 -4 -4 -4 -4 -4 -4 -4 -4 -4 -4 -4 -4 -4 -4 -4 -4 -4 -4
-3 -3 -3 -3 -2 -2 -3 -3 -3 -2 -2 -3 -3 -3 -4 -5 -4 -5 -5 -5 -5 -5 -5 -5 -5 -5 -5 -5 -5 -5 -5 -5 -5 -5 -5 -5 -4 -4 -4 -5 -5 -5 -5 -5
-3 -3 -3 -3 -3 -2 -4 -4 -4 -4 -3 -3 -4 -4 -4 -5 -5 -5 -6 -6 -6 -6 -6 -6 -6 -6 -6 -6 -6 -6 -6 -6 -6 -5 -5 -5 -5 -5 -5 -5 -5 -5 -5 -6
-3 -3 -3 -3 -3 -3 -4 -4 -4 -4 -4 -4 -4 -4 -5 -5 -6 -6 -7 -7 -7 -7 -7 -7 -6 -6 -6 -6 -6 -7 -7 -6 -6 -6 -6 -6 -6 -6 -6 -6 -6 -6 -6 -6
-4 -4 -4 -4 -4 -4 -4 -4 -4 -4 -4 -4 -5 -5 -5 -6 -6 -7 -7 -8 -7 -7 -7 -7 -7 -7 -7 -7 -7 -7 -7 -7 -7 -7 -7 -7 -7 -7 -7 -7 -7 -7 -7 -7
-4 -5 -5 -5 -5 -5 -4 -4 -5 -5 -5 -5 -5 -6 -6 -7 -7 -7 -8 -8 -8 -8 -7 -7 -8 -8 -8 -8 -8 -8 -8 -8 -8 -8 -8 -8 -8 -8 -8 -8 -8 -8 -8 -8
-5 -6 -6 -5 -5 -5 -5 -5 -5 -5 -6 -6 -6 -6 -7 -7 -8 -8 -8 -8 -8 -8 -8 -8 -8 -9 -9 -9 -9 -9 -9 -9 -9 -9 -9 -9 -9 -9 -9 -9 -9 -9 -9 -9
Wind_Speed
3 1 2 4 5 5 5 5 7 5 2 4 6 7 5 5 5 4 4 3 3 3 2 3 3 3 3 3 3 3 4 4 3 3 3 3 3 3 3 5 6 7 7 8
3 4 4 4 4 6 7 7 7 4 1 3 5 7 5 5 6 5 5 4 3 2 2 3 3 3 2 2 2 2 3 4 3 2 2 2 3 3 3 5 6 7 7 7
3 1 2 4 4 5 6 6 6 4 3 4 4 5 6 5 5 4 3 2 2 2 2 2 2 2 2 2 2 2 2 3 3 3 2 2 3 2 2 3 3 5 7 7
3 2 3 3 3 4 6 3 5 4 3 4 5 4 5 5 5 3 2 1 1 1 1 2 2 2 3 1 1 2 2 3 3 3 3 4 3 2 2 4 3 4 6 6
1 1 3 3 3 4 3 4 5 6 6 6 6 5 4 4 3 3 2 1 1 1 1 1 2 2 2 2 1 1 2 2 3 3 3 3 3 2 2 3 4 4 4 6
3 1 2 3 3 3 3 3 5 5 3 6 7 6 3 3 4 2 2 2 1 1 1 1 1 2 1 1 1 1 1 2 3 3 4 4 4 3 4 4 4 4 3 4
3 4 1 1 2 1 2 1 1 2 4 5 4 4 4 2 2 2 2 2 2 2 2 1 1 1 1 1 1 0 1 2 3 4 4 4 4 4 5 5 5 4 3 3
3 3 3 1 1 2 4 2 2 3 4 3 2 5 3 4 4 3 2 2 3 2 1 1 1 1 1 0 0 1 1 1 2 3 3 4 4 3 3 4 4 4 3 3
2 3 1 1 1 1 2 3 2 2 4 4 4 3 3 2 2 2 2 2 2 1 1 1 1 1 1 1 1 1 1 1 2 3 3 3 4 4 4 4 3 3 3 4
3 4 3 1 1 3 3 2 1 2 3 5 5 5 4 5 3 1 0 0 0 1 1 1 1 1 1 1 2 2 1 1 1 1 2 3 3 4 4 4 4 4 3 4
2 2 3 2 4 4 3 2 3 4 4 3 4 3 1 3 2 2 1 0 0 1 0 1 1 1 1 1 1 2 2 2 1 0 1 2 3 4 4 4 4 4 4 4
2 1 4 4 2 1 3 4 4 3 4 4 4 4 2 3 2 2 1 1 1 1 1 1 1 1 1 1 1 1 2 1 1 1 1 1 3 4 4 4 4 4 4 5
2 1 3 3 1 1 3 3 4 3 3 4 5 4 2 2 2 2 1 1 2 2 2 1 1 1 1 2 2 2 2 2 1 0 1 2 3 4 4 4 4 4 4 4
2 3 5 6 4 2 4 5 4 4 5 6 8 6 4 1 1 2 1 0 1 1 1 2 2 2 2 2 2 2 2 1 1 0 1 2 2 3 4 4 4 4 4 4
1 4 6 8 8 7 8 8 7 9 9 8 8 6 6 3 2 2 2 1 1 2 2 2 2 2 2 2 2 2 2 1 0 1 1 1 2 2 3 4 4 4 4 4
1 3 4 6 8 8 11 10 10 10 9 11 10 10 4 1 1 1 1 1 1 2 2 3 2 3 3 2 2 2 2 1 1 2 1 2 2 3 3 3 4 4 4 4
2 2 3 5 3 5 7 6 7 5 5 6 9 7 1 2 3 2 2 1 2 2 3 3 2 2 2 2 2 2 2 1 1 1 1 2 2 3 2 3 3 4 4 3
4 3 3 4 3 6 5 1 2 4 6 6 6 5 3 3 4 2 1 1 1 2 3 3 3 2 2 2 2 1 1 0 1 1 1 2 2 2 2 3 3 3 3 4
4 4 3 3 4 6 3 1 1 2 5 4 6 5 3 1 3 2 1 1 1 2 2 2 2 2 1 1 1 1 1 1 1 1 1 1 2 2 3 3 2 2 3 3
2 3 4 4 4 5 3 0 1 1 5 2 2 4 1 2 2 3 2 2 2 2 2 2 2 2 1 1 1 0 0 1 1 1 1 1 2 2 3 3 2 2 2 2
2 3 6 6 5 5 3 1 1 2 4 3 2 2 1 3 3 2 1 2 2 2 2 2 2 2 2 2 1 1 1 1 1 1 1 2 2 2 3 3 2 3 3 3
5 4 5 4 5 7 1 3 4 4 2 2 2 2 2 2 2 1 1 2 2 3 3 2 2 2 2 2 2 2 2 2 2 2 2 2 2 2 3 3 3 3 3 3
6 6 4 6 6 2 4 4 3 1 3 3 3 2 1 1 2 1 1 1 2 2 2 1 2 2 2 2 2 2 2 2 2 3 3 3 3 2 2 3 3 3 3 3
3 2 3 4 5 3 3 3 2 2 2 3 2 1 1 2 1 1 1 1 1 2 2 1 2 2 2 2 2 2 2 2 3 3 3 3 3 3 2 2 2 2 3 3
3 3 3 5 5 4 3 3 3 2 1 2 2 1 1 1 1 1 1 1 1 1 1 1 1 1 1 2 2 2 2 3 3 3 2 2 3 2 2 2 2 2 2 2
3 4 5 6 4 3 4 2 2 2 2 2 1 1 1 1 1 1 1 1 1 0 1 1 1 1 2 2 2 2 2 2 3 2 2 2 2 2 2 2 3 3 3 3
Wind_Direction
180 212 246 247 235 273 286 261 266 270 193 213 232 244 234 193 191 195 199 190 193 205 177 140 127 119 107 101 118 150 152 152 143 140 143 146 153 153 144 140 144 144 143 144
185 230 266 288 259 256 265 270 270 289 236 245 244 253 245 203 192 188 196 196 193 200 179 151 130 123 127 129 136 145 152 153 146 135 141 147 147 157 155 145 148 150 149 150
215 320 290 268 278 275 265 270 275 275 308 250 248 261 228 203 183 176 178 175 168 182 171 154 147 144 144 165 176 175 150 139 135 127 114 111 102 101 133 145 156 153 154 154
244 274 298 272 269 274 265 306 297 279 266 253 214 259 228 192 170 160 159 146 118 72 98 141 156 170 175 187 171 158 156 146 133 134 145 152 154 161 178 164 157 153 152 152
251 228 267 259 271 277 284 322 287 264 253 265 236 238 249 184 183 191 178 141 97 93 129 160 162 166 164 159 154 151 162 153 150 155 162 159 151 143 137 142 145 152 154 153
251 291 321 293 298 261 282 304 275 247 240 251 222 211 253 194 200 198 172 150 123 103 114 120 93 89 77 104 131 160 162 181 170 171 173 175 165 153 151 149 158 159 160 155
232 202 192 287 299 273 266 310 301 248 220 238 196 193 226 165 133 129 153 156 141 116 113 108 93 85 91 94 126 164 190 203 187 186 185 186 177 166 173 168 167 163 162 165
282 254 179 187 210 231 248 219 201 239 255 268 200 211 200 126 106 78 78 115 112 110 95 102 94 81 61 28 326 233 236 246 203 199 196 186 171 174 182 170 166 170 172 169
294 277 71 142 314 261 245 236 261 282 281 266 229 198 186 132 104 70 59 79 100 96 68 60 60 41 25 8 331 294 276 288 229 210 199 185 173 175 175 169 162 165 160 153
308 285 271 222 244 242 261 279 209 225 260 261 246 218 215 193 204 165 99 218 11 58 45 22 20 17 7 349 332 329 315 286 261 216 200 187 177 177 166 158 157 158 157 151
295 264 267 221 210 208 196 213 234 242 247 252 267 252 47 142 147 170 207 214 103 37 20 5 359 3 6 354 331 330 329 324 279 213 207 178 173 166 157 157 158 155 154 157
320 280 264 239 212 225 219 218 208 223 249 241 261 263 66 101 87 90 87 51 41 33 29 37 8 3 4 354 330 323 315 322 276 178 171 171 159 154 155 156 153 150 159 164
340 257 284 260 228 224 249 238 229 241 266 246 244 247 141 98 59 41 52 59 42 28 23 33 21 358 339 330 324 317 316 333 337 112 152 145 153 159 162 157 155 157 160 162
316 244 231 251 280 291 260 248 228 217 231 251 246 256 268 284 317 323 324 55 59 26 24 15 351 338 323 315 313 311 314 333 326 61 150 157 154 161 161 152 152 154 156 158
289 257 258 271 281 278 270 257 230 222 229 239 260 267 269 273 266 272 278 303 10 355 343 339 328 326 327 324 321 313 320 332 152 129 140 151 137 132 138 147 150 151 154 161
252 270 290 277 262 261 269 260 241 239 239 247 265 275 281 295 303 298 290 301 302 309 321 323 327 325 317 320 322 314 314 310 128 125 123 123 118 125 135 144 148 149 156 158
226 239 267 271 288 300 266 249 227 230 228 224 241 250 309 310 297 274 264 259 276 296 310 310 304 304 312 308 306 290 304 326 102 105 102 106 116 129 139 139 144 157 161 159
211 225 243 273 300 252 243 191 187 219 252 234 243 263 271 269 290 276 242 242 306 315 313 316 320 323 330 339 336 326 338 100 113 116 115 113 114 125 135 140 149 160 161 165
216 210 236 245 256 265 258 220 179 212 274 254 250 272 292 344 327 288 9 20 320 320 321 317 321 318 326 331 326 355 359 92 111 131 138 135 141 143 142 144 150 152 148 158
214 203 221 241 249 250 259 22 0 133 273 304 255 265 300 14 292 276 344 353 349 1 360 356 354 1 4 348 7 91 226 124 129 130 126 126 137 143 146 145 142 134 136 144
190 209 218 234 245 262 263 227 110 192 260 327 289 266 218 231 252 288 351 359 12 15 15 20 19 17 13 21 48 95 79 78 74 71 80 90 103 122 131 126 125 128 129 121
191 201 208 212 230 252 162 135 188 235 307 317 303 281 241 271 331 355 12 11 15 13 14 19 34 27 21 34 63 67 49 43 63 76 84 88 95 103 110 119 119 121 126 126
200 201 206 207 222 234 167 193 232 264 280 290 291 295 243 272 293 307 325 345 356 3 357 23 59 43 26 36 68 71 38 52 68 74 80 87 86 88 97 115 118 117 121 124
222 209 227 258 259 251 221 240 271 274 271 292 296 282 214 248 254 286 306 332 345 346 356 45 78 69 35 33 45 55 55 68 80 79 78 83 90 88 85 90 105 121 130 131
230 185 224 250 275 297 266 248 261 283 305 318 325 312 224 211 232 245 284 299 308 332 7 56 79 65 38 37 41 51 61 74 77 80 83 83 86 93 93 88 91 99 116 143
203 201 212 239 245 245 272 306 317 293 286 283 296 320 315 220 218 214 256 277 282 338 26 45 52 51 43 46 43 44 55 78 88 84 83 88 91 91 93 92 73 69 85 94
Height
1467 1470 1470 1468 1467 1465 1464 1464 1464 1463 1462 1466 1467 1467 1467 1468 1469 1471 1472 1473 1474 1475 1477 1478 1479 1479 1480 1482 1483 1485 1487 1489 1491 1492 1495 1497 1500 1504 1507 1509 1511 1514 1516 1518
1467 1470 1467 1465 1464 1465 1464 1465 1464 1463 1462 1465 1467 1466 1464 1465 1466 1467 1469 1471 1472 1473 1474 1475 1476 1477 1478 1479 1480 1482 1484 1486 1488 1490 1492 1495 1498 1501 1504 1506 1509 1511 1513 1515
1468 1468 1466 1466 1466 1466 1465 1466 1466 1466 1466 1465 1467 1467 1462 1461 1462 1465 1467 1468 1469 1470 1471 1472 1473 1474 1475 1476 1478 1479 1481 1483 1485 1487 1489 1492 1494 1497 1500 1502 1505 1508 1511 1512
1466 1466 1466 1466 1466 1467 1467 1465 1466 1466 1470 1470 1466 1472 1460 1458 1461 1464 1465 1466 1467 1468 1469 1470 1471 1472 1472 1474 1476 1477 1479 1480 1482 1484 1486 1488 1490 1492 1495 1498 1502 1505 1507 1510
1466 1466 1467 1467 1467 1467 1467 1465 1466 1466 1468 1469 1465 1470 1463 1456 1461 1463 1464 1465 1466 1467 1468 1468 1469 1470 1471 1472 1473 1475 1477 1478 1480 1481 1483 1485 1487 1490 1493 1495 1498 1501 1504 1506
1467 1467 1467 1467 1466 1466 1466 1466 1464 1464 1468 1472 1463 1466 1464 1459 1459 1460 1461 1463 1464 1465 1466 1467 1467 1468 1469 1470 1471 1472 1473 1475 1477 1478 1480 1482 1484 1486 1489 1491 1494 1497 1500 1503
1466 1466 1467 1467 1468 1467 1467 1471 1473 1472 1471 1466 1458 1462 1463 1458 1457 1458 1459 1460 1462 1463 1464 1465 1465 1465 1466 1467 1468 1469 1470 1472 1474 1476 1477 1479 1481 1483 1486 1488 1490 1493 1496 1498
1469 1469 1466 1467 1468 1470 1469 1469 1476 1477 1469 1461 1461 1462 1460 1457 1456 1457 1458 1459 1461 1462 1463 1463 1463 1464 1464 1465 1465 1467 1468 1469 1471 1473 1474 1477 1478 1480 1483 1485 1487 1490 1492 1495
1471 1469 1466 1466 1467 1468 1469 1469 1467 1472 1468 1469 1460 1457 1457 1456 1456 1457 1458 1458 1459 1460 1461 1461 1462 1462 1462 1463 1463 1464 1465 1466 1468 1470 1471 1473 1475 1477 1479 1482 1484 1487 1489 1491
1471 1474 1468 1467 1468 1468 1468 1467 1471 1473 1472 1467 1456 1453 1455 1457 1458 1458 1458 1458 1458 1459 1459 1460 1460 1460 1460 1461 1462 1462 1463 1463 1465 1466 1468 1470 1471 1473 1476 1478 1480 1483 1485 1487
1471 1476 1472 1469 1469 1469 1470 1470 1469 1469 1467 1469 1465 1459 1453 1454 1455 1457 1458 1457 1457 1458 1458 1458 1458 1458 1458 1459 1459 1459 1460 1461 1462 1463 1464 1466 1468 1470 1472 1475 1477 1479 1481 1484
1472 1475 1474 1468 1465 1465 1466 1466 1468 1473 1470 1465 1465 1464 1455 1455 1455 1455 1457 1457 1457 1457 1457 1457 1457 1457 1456 1456 1456 1456 1457 1458 1458 1460 1461 1462 1464 1467 1469 1471 1473 1476 1477 1480
1475 1477 1477 1469 1470 1469 1467 1466 1466 1468 1469 1467 1465 1462 1456 1456 1455 1456 1456 1457 1457 1456 1456 1455 1455 1454 1454 1453 1453 1453 1454 1455 1456 1457 1458 1460 1461 1463 1465 1467 1470 1472 1474 1476
1475 1476 1478 1473 1466 1468 1469 1467 1467 1469 1471 1466 1459 1456 1456 1456 1456 1456 1456 1456 1456 1456 1455 1454 1453 1452 1452 1451 1451 1451 1451 1452 1453 1454 1455 1456 1458 1460 1462 1464 1466 1468 1470 1472
1475 1476 1473 1470 1466 1466 1466 1465 1465 1467 1464 1464 1456 1456 1454 1454 1454 1454 1454 1454 1454 1454 1453 1452 1451 1450 1449 1448 1448 1448 1448 1449 1450 1451 1452 1453 1455 1457 1459 1460 1462 1464 1466 1468
1476 1476 1473 1471 1465 1464 1463 1460 1461 1461 1460 1459 1456 1456 1452 1452 1452 1452 1452 1452 1452 1451 1451 1450 1449 1447 1446 1445 1445 1445 1446 1446 1447 1448 1449 1451 1453 1454 1455 1457 1459 1461 1463 1465
1475 1476 1475 1470 1464 1463 1461 1457 1457 1457 1456 1456 1455 1453 1451 1451 1451 1451 1450 1450 1450 1449 1448 1447 1446 1444 1444 1443 1443 1443 1444 1444 1445 1446 1447 1449 1450 1452 1453 1454 1456 1457 1459 1461
1474 1475 1474 1471 1469 1469 1457 1452 1452 1454 1453 1452 1451 1450 1450 1450 1449 1449 1449 1448 1448 1447 1445 1444 1443 1442 1442 1441 1441 1442 1442 1442 1443 1444 1445 1447 1448 1449 1450 1452 1453 1455 1456 1458
1470 1472 1472 1470 1467 1459 1453 1452 1453 1455 1454 1450 1450 1448 1448 1448 1447 1447 1446 1446 1446 1445 1444 1442 1441 1440 1439 1439 1439 1440 1440 1441 1441 1442 1443 1444 1445 1446 1447 1449 1450 1452 1453 1455
1468 1470 1473 1469 1466 1460 1453 1452 1450 1454 1455 1448 1447 1447 1448 1447 1449 1446 1444 1444 1443 1442 1441 1440 1438 1438 1437 1437 1437 1438 1438 1439 1439 1440 1441 1442 1443 1444 1445 1446 1448 1449 1451 1452
1470 1470 1471 1468 1465 1459 1453 1452 1451 1457 1452 1448 1446 1446 1446 1447 1447 1445 1443 1442 1440 1439 1439 1438 1436 1436 1435 1435 1436 1436 1436 1437 1437 1438 1439 1440 1441 1442 1443 1444 1445 1447 1448 1450
1465 1466 1466 1465 1463 1459 1452 1451 1453 1451 1447 1446 1445 1444 1444 1444 1443 1442 1441 1440 1438 1437 1436 1436 1435 1434 1434 1434 1434 1434 1434 1435 1436 1436 1437 1438 1439 1440 1441 1442 1443 1445 1446 1447
1458 1459 1457 1457 1455 1449 1448 1447 1447 1446 1445 1444 1443 1442 1442 1441 1440 1439 1438 1437 1436 1436 1435 1434 1434 1433 1433 1433 1433 1433 1434 1434 1434 1435 1435 1436 1437 1438 1439 1440 1441 1443 1444 1445
1454 1453 1453 1453 1447 1446 1445 1444 1444 1444 1443 1442 1441 1440 1439 1438 1438 1437 1436 1436 1435 1434 1433 1433 1433 1432 1432 1432 1432 1432 1432 1433 1433 1433 1434 1435 1436 1437 1438 1439 1440 1441 1442 1443
1450 1451 1451 1450 1446 1444 1442 1441 1441 1440 1440 1439 1438 1438 1437 1436 1436 1435 1435 1434 1433 1433 1432 1432 1431 1430 1430 1430 1431 1431 1431 1432 1432 1433 1433 1434 1435 1436 1437 1438 1439 1440 1441 1442
1446 1448 1449 1445 1442 1442 1440 1439 1438 1438 1436 1436 1435 1435 1435 1434 1434 1433 1433 1433 1432 1431 1431 1430 1430 1429 1430 1430 1430 1430 1431 1431 1431 1432 1433 1433 1434 1435 1436 1437 1438 1439 1441 1442